This demonstration page uses our WeatherBlox Daily Observations layout. Learn more.

Left ArrowRight Arrow

34.02893, -84.19858

Hourly Observations for June 9, 2022

Temp ( °F °C ) Dew Point ( °F °C ) Humidity (%) Winds ( mph kmh ) Pressure ( in mb ) Visibility ( mi km ) Precip ( " mm )
12:53 am 00:53 Mostly Clear with Light Rain 70 21.1 69 20.6 97 97 Calm 29.85 1011 7 11 0.03 0.76
1:53 am 01:53 Clear 70 21.1 69 20.6 97 97 SW 7 11 29.89 1012 10 16 0.01 0.25
2:33 am 02:33 Mostly Cloudy 70 21.1 68 20 93 93 SW 7 11 29.91 1013 10 16 0.00 0.00
2:53 am 02:53 Mostly Cloudy 69 20.6 67 19.4 93 93 W 6 9 29.89 1012 10 16 0.00 0.00
3:53 am 03:53 Clear 68 20 67 19.4 96 96 WSW 5 7 29.87 1012 10 16 0.00 0.00
4:53 am 04:53 Cloudy 68 20 67 19.4 96 96 W 7 11 29.88 1012 10 16 0.00 0.00
5:53 am 05:53 Mostly Cloudy 68 20 67 19.4 96 96 NW 3 6 29.88 1012 10 16 0.00 0.00
6:53 am 06:53 Mostly Sunny 68 20 67 19.4 96 96 Calm 29.89 1012 10 16 0.00 0.00
7:53 am 07:53 Sunny 69 20.6 67 19.4 93 93 SW 5 7 29.91 1013 10 16 0.00 0.00
8:27 am 08:27 Mostly Cloudy 71 21.7 69 20.6 94 94 W 6 9 29.93 1013 10 16 0.00 0.00
8:50 am 08:50 Mostly Cloudy 72 22 70 21 94 94 W 8 13 29.93 1013 10 16 0.00 0.00
8:53 am 08:53 Mostly Cloudy 72 22.2 68 20 87 87 W 8 13 29.91 1013 10 16 0.00 0.00
9:24 am 09:24 Partly Cloudy 73 22.8 69 20.6 87 87 W 8 13 29.93 1014 10 16 0.00 0.00
9:53 am 09:53 Mostly Cloudy 74 23.3 69 20.6 85 85 W 8 13 29.92 1013 10 16 0.00 0.00
10:53 am 10:53 Cloudy 76 24.4 69 20.6 79 79 NW 7 11 29.93 1013 10 16 0.00 0.00
11:53 am 11:53 Mostly Cloudy 79 26.1 69 20.6 72 72 NW 8 13 29.93 1014 10 16 0.00 0.00
11:55 am 11:55 Mostly Cloudy 78 25.6 69 20.6 74 74 NW 7 11 29.93 1014 10 16 0.00 0.00
12:53 pm 12:53 Cloudy 78 25.6 69 20.6 74 74 NW 9 15 29.93 1014 10 16 0.00 0.00
1:53 pm 13:53 Partly Cloudy 80 26.7 69 20.6 69 69 W 8 13 29.91 1013 10 16 0.00 0.00
2:53 pm 14:53 Mostly Cloudy 83 28.3 69 20.6 63 63 WNW 9 15 29.88 1012 10 16 0.00 0.00
3:53 pm 15:53 Mostly Cloudy 83 28.3 67 19.4 59 59 NNW 12 19 29.86 1011 10 16 0.00 0.00
4:53 pm 16:53 Partly Cloudy 83 28.3 64 17.8 53 53 NNW 15 24 29.85 1011 10 16 0.00 0.00
5:28 pm 17:28 Mostly Sunny 83 28.3 65 18.3 55 55 N 13 20 29.85 1011 10 16 0.00 0.00
5:53 pm 17:53 Partly Cloudy 82 27.8 63 17.2 53 53 NW 12 19 29.85 1011 10 16 0.00 0.00
6:53 pm 18:53 Mostly Sunny 82 27.8 63 17.2 53 53 NW 13 20 29.86 1011 10 16 0.00 0.00
7:53 pm 19:53 Sunny 79 26.1 62 16.7 56 56 NNW 10 17 29.88 1012 10 16 0.00 0.00
8:53 pm 20:53 Clear 76 24.4 61 16.1 60 60 NNW 7 11 29.89 1012 10 16 0.00 0.00
9:53 pm 21:53 Clear 74 23.3 61 16.1 64 64 NW 6 9 29.90 1013 10 16 0.00 0.00
10:53 pm 22:53 Clear 73 22.8 59 15 62 62 NNW 6 9 29.91 1013 10 16 0.00 0.00
11:53 pm 23:53 Clear 71 21.7 58 14.4 63 63 NNW 8 13 29.92 1013 10 16 0.00 0.00

Powered by AerisWeather